N8DH Weather Reports


Display with metric or nautical units.
time (UTC)temp
F
wind
direction
speed
MPH
gust
MPH
rain 1hr
in
rain 24hr
in
rain mn
in
humidity
%
barometer
mb
20260906161504 73 11 2.0 8.0 0.00 0.00 0.00 71 1011.4
20260906160054 73 340 3.0 8.0 0.00 0.00 0.00 69 1011.4
20260906154539 72 101 2.0 7.0 0.00 0.00 0.00 71 1011.5
20260906153106 73 57 5.0 10.0 0.00 0.00 0.00 70 1011.5
20260906151644 73 53 4.0 10.0 0.00 0.00 0.00 75 1011.4
20260906150149 73 83 3.0 10.0 0.00 0.00 0.00 75 1011.4
20260906144538 72 67 2.0 6.0 0.00 0.00 0.00 79 1011.4
20260906143113 72 15 3.0 8.0 0.00 0.00 0.00 82 1011.3
20260906141519 70 43 1.0 3.0 0.00 0.00 0.00 83 1011.3
20260906140055 69 5 0.0 3.0 0.00 0.00 0.00 85 1011.2
20260906134523 68 155 0.0 2.0 0.00 0.00 0.00 88 1011.1
20260906133112 66 155 1.0 2.0 0.00 0.00 0.00 88 1011.1
20260906131642 66 155 0.0 2.0 0.00 0.00 0.00 89 1011.1
20260906130056 65 322 0.0 2.0 0.00 0.00 0.00 91 1010.9
20260906124507 63 322 0.0 2.0 0.00 0.01 0.00 96 1010.9
20260906123102 61 322 0.0 2.0 0.00 0.01 0.00 97 1010.7
20260906121532 59 322 0.0 0.0 0.00 0.01 0.00 97 1010.5
20260906120150 57 322 0.0 2.0 0.00 0.01 0.00 97 1010.5
20260906114512 56 322 0.0 0.0 0.00 0.01 0.00 97 1010.3
20260906113055 55 322 0.0 0.0 0.00 0.01 0.00 96 1010.1
20260906111645 55 322 0.0 0.0 0.00 0.01 0.00 96 1010.1
20260906110113 55 322 0.0 0.0 0.00 0.01 0.00 96 1009.9
20260906104646 55 322 0.0 0.0 0.00 0.01 0.00 96 1009.7
20260906103055 55 322 0.0 0.0 0.00 0.01 0.00 96 1009.8
20260906101522 55 322 0.0 0.0 0.00 0.01 0.00 96 1009.8
20260906100056 55 322 0.0 2.0 0.00 0.01 0.00 96 1009.7
20260906094606 56 322 0.0 2.0 0.00 0.01 0.00 96 1009.6
20260906093141 56 322 0.0 0.0 0.00 0.01 0.00 96 1009.6
20260906091642 56 322 0.0 0.0 0.00 0.01 0.00 96 1009.4
20260906090018 56 322 0.0 0.0 0.00 0.01 0.00 96 1009.6
20260906084607 56 322 0.0 0.0 0.00 0.01 0.00 96 1009.6
20260906083143 57 322 0.0 0.0 0.00 0.01 0.00 96 1009.6
20260906081528 57 322 0.0 0.0 0.00 0.01 0.00 95 1009.2
20260906074503 57 322 0.0 0.0 0.00 0.01 0.00 95 1009.0
20260906073027 57 322 0.0 1.0 0.00 0.01 0.00 95 1008.9
20260906071548 58 322 0.0 1.0 0.00 0.01 0.00 95 1009.0
20260906070138 58 322 0.0 1.0 0.00 0.01 0.00 95 1008.7
20260906064535 58 322 0.0 2.0 0.00 0.01 0.00 95 1008.6
20260906063107 59 322 0.0 0.0 0.00 0.01 0.00 95 1008.7
20260906061510 59 322 0.0 2.0 0.00 0.01 0.00 95 1008.8
20260906060049 59 322 0.0 0.0 0.00 0.01 0.00 95 1008.9
20260906054632 59 322 0.0 2.0 0.00 0.01 0.00 95 1008.8
20260906053135 59 322 0.0 2.0 0.00 0.01 0.00 95 1008.6
20260906051529 59 322 0.0 2.0 0.00 0.01 0.00 95 1008.8
20260906050107 59 322 0.0 2.0 0.00 0.01 0.00 95 1008.8
20260906044519 59 322 0.0 3.0 0.00 0.07 0.00 95 1008.9
20260906043059 59 323 0.0 2.0 0.00 0.07 0.00 95 1008.9
20260906041519 59 323 0.0 0.0 0.00 0.07 0.00 95 1008.7
20260906034545 60 323 0.0 2.0 0.00 0.07 0.07 93 1008.6
20260906033131 60 323 0.0 2.0 0.00 0.07 0.07 93 1008.6
20260906031641 60 323 0.0 2.0 0.00 0.07 0.07 93 1008.7
20260906030022 61 323 0.0 0.0 0.00 0.07 0.07 92 1008.6
20260906024608 61 323 0.0 0.0 0.00 0.07 0.07 92 1008.6
20260906023024 61 323 0.0 2.0 0.00 0.07 0.07 92 1008.5
20260906021615 62 323 0.0 2.0 0.00 0.07 0.07 91 1008.2
20260906020141 62 360 0.0 0.0 0.00 0.07 0.07 90 1008.2
20260906014516 63 360 0.0 2.0 0.00 0.07 0.07 87 1008.1
20260906013109 63 360 0.0 2.0 0.00 0.07 0.07 87 1007.9
20260906011635 63 360 0.0 0.0 0.00 0.07 0.07 88 1007.9
20260906010029 63 360 0.0 2.0 0.00 0.07 0.07 88 1007.9
20260906004604 64 360 0.0 0.0 0.00 0.07 0.07 85 1007.8
20260906003045 65 360 0.0 2.0 0.00 0.07 0.07 85 1007.9
20260906001640 67 15 0.0 2.0 0.00 0.07 0.07 80 1007.7
20260906000027 69 360 0.0 3.0 0.00 0.07 0.07 73 1007.6
20260905234607 70 14 1.0 3.0 0.00 0.07 0.07 71 1007.5
20260905233020 71 5 2.0 5.0 0.00 0.07 0.07 70 1007.5
20260905231543 71 47 1.0 5.0 0.00 0.07 0.07 75 1007.4
20260905230105 71 20 1.0 5.0 0.00 0.07 0.07 77 1007.3
20260905224531 71 30 2.0 5.0 0.00 0.07 0.07 74 1007.3
20260905223058 72 15 2.0 9.0 0.00 0.07 0.07 76 1007.0
20260905221506 72 306 2.0 8.0 0.00 0.07 0.07 75 1007.0
20260905220022 73 9 4.0 10.0 0.00 0.07 0.07 72 1006.8
20260905214556 73 355 3.0 8.0 0.00 0.07 0.07 75 1006.6
20260905213140 72 349 2.0 6.0 0.00 0.07 0.07 77 1006.6
20260905211636 73 11 3.0 5.0 0.00 0.07 0.07 76 1006.6
20260905210024 74 44 3.0 9.0 0.00 0.07 0.07 74 1006.6
20260905204545 74 17 2.0 13.0 0.00 0.07 0.07 75 1006.7
20260905203122 75 336 2.0 8.0 0.00 0.07 0.07 76 1006.7
20260905201639 75 60 3.0 7.0 0.00 0.07 0.07 75 1006.7
20260905200141 75 360 3.0 8.0 0.00 0.07 0.07 73 1006.7
20260905194536 75 51 2.0 6.0 0.00 0.07 0.07 77 1006.8
20260905193115 76 360 3.0 7.0 0.00 0.07 0.07 75 1006.8
20260905191514 77 360 4.0 8.0 0.00 0.07 0.07 78 1006.7
20260905190100 77 68 2.0 7.0 0.00 0.07 0.07 80 1006.6
20260905184636 76 27 3.0 9.0 0.00 0.07 0.07 81 1006.7
20260905183005 77 45 3.0 9.0 0.00 0.07 0.07 82 1006.8
20260905181542 76 313 2.0 8.0 0.00 0.07 0.07 84 1006.9
20260905180112 76 32 4.0 8.0 0.00 0.07 0.07 82 1006.8
20260905174647 76 45 4.0 6.0 0.00 0.09 0.07 85 1006.9
20260905173059 76 73 2.0 6.0 0.00 0.09 0.07 86 1007.0
20260905171635 75 14 2.0 7.0 0.00 0.09 0.07 88 1007.0
20260905170012 76 5 3.0 7.0 0.00 0.09 0.07 88 1007.1
20260905164542 75 44 4.0 11.0 0.00 0.09 0.07 88 1007.0
20260905163106 76 33 1.0 2.0 0.00 0.09 0.07 87 1007.0